QPF
0.03 0.03 0.02 0.02 0.02 0.01 0.00 0.00 0.00 0.01 0.00 0.00 0.00 0.00 0.00 0.00 0.00 0.00 0.00 0.00 0.01 0.01 0.01 0.02 0.02 0.03 0.04 0.05 0.05 0.05 0.06 0.04 0.03 0.03 0.02 0.01 0.01 0.01 0.01 0.02 0.02 0.02 0.02
0.05 0.05 0.04 0.03 0.04 0.02 0.01 0.01 0.01 0.01 0.01 0.01 0.01 0.00 0.00 0.00 0.00 0.00 0.00 0.00 0.00 0.00 0.01 0.02 0.03 0.04 0.04 0.05 0.06 0.09 0.08 0.06 0.05 0.04 0.03 0.03 0.03 0.02 0.02 0.02 0.02 0.02 0.02
0.04 0.07 0.06 0.05 0.04 0.04 0.04 0.03 0.01 0.01 0.01 0.01 0.01 0.01 0.00 0.00 0.00 0.00 0.00 0.00 0.00 0.00 0.00 0.02 0.03 0.04 0.03 0.05 0.06 0.08 0.07 0.08 0.06 0.04 0.03 0.02 0.02 0.03 0.03 0.03 0.03 0.03 0.03
0.04 0.07 0.08 0.07 0.07 0.07 0.04 0.03 0.02 0.01 0.01 0.01 0.01 0.01 0.01 0.00 0.00 0.00 0.00 0.00 0.00 0.00 0.00 0.00 0.01 0.02 0.02 0.03 0.03 0.02 0.04 0.06 0.04 0.04 0.02 0.02 0.02 0.03 0.03 0.03 0.03 0.03 0.04
0.04 0.05 0.09 0.10 0.11 0.09 0.05 0.03 0.02 0.01 0.01 0.01 0.01 0.01 0.01 0.00 0.00 0.00 0.00 0.00 0.00 0.00 0.00 0.00 0.00 0.00 0.01 0.02 0.03 0.02 0.03 0.03 0.03 0.03 0.02 0.02 0.02 0.03 0.02 0.02 0.02 0.02 0.02
0.05 0.05 0.08 0.12 0.13 0.11 0.07 0.04 0.03 0.02 0.02 0.02 0.01 0.01 0.00 0.00 0.00 0.00 0.00 0.00 0.00 0.01 0.00 0.00 0.00 0.00 0.00 0.02 0.03 0.02 0.03 0.03 0.03 0.03 0.02 0.02 0.02 0.02 0.02 0.02 0.02 0.01 0.02
0.06 0.06 0.08 0.11 0.13 0.12 0.11 0.08 0.05 0.03 0.03 0.03 0.02 0.01 0.01 0.00 0.00 0.00 0.00 0.00 0.01 0.01 0.01 0.01 0.00 0.00 0.00 0.01 0.03 0.03 0.03 0.03 0.03 0.03 0.03 0.02 0.02 0.02 0.02 0.02 0.02 0.02 0.03
0.05 0.04 0.05 0.08 0.10 0.11 0.12 0.11 0.08 0.06 0.04 0.03 0.02 0.02 0.01 0.01 0.00 0.00 0.01 0.01 0.01 0.01 0.01 0.01 0.01 0.00 0.00 0.00 0.02 0.01 0.01 0.02 0.02 0.03 0.02 0.02 0.02 0.02 0.02 0.03 0.03 0.03 0.04
0.03 0.04 0.05 0.08 0.10 0.11 0.10 0.10 0.10 0.07 0.05 0.04 0.03 0.02 0.01 0.01 0.00 0.00 0.00 0.01 0.01 0.01 0.01 0.01 0.01 0.00 0.00 0.00 0.00 0.00 0.00 0.01 0.01 0.02 0.03 0.03 0.03 0.02 0.02 0.02 0.02 0.02 0.02
0.03 0.03 0.04 0.05 0.08 0.10 0.10 0.09 0.09 0.08 0.04 0.03 0.02 0.02 0.02 0.01 0.00 0.00 0.00 0.00 0.00 0.01 0.01 0.01 0.01 0.00 0.00 0.00 0.00 0.00 0.00 0.01 0.01 0.01 0.02 0.03 0.03 0.04 0.04 0.03 0.02 0.02 0.02
0.03 0.03 0.04 0.04 0.04 0.07 0.08 0.08 0.07 0.07 0.05 0.03 0.02 0.02 0.01 0.01 0.00 0.00 0.00 0.00 0.00 0.00 0.00 0.00 0.00 0.01 0.01 0.00 0.00 0.00 0.00 0.00 0.01 0.01 0.01 0.01 0.02 0.03 0.03 0.04 0.03 0.03 0.02
0.04 0.03 0.03 0.03 0.03 0.03 0.06 0.07 0.06 0.06 0.05 0.04 0.03 0.02 0.02 0.02 0.01 0.01 0.01 0.00 0.00 0.00 0.00 0.00 0.00 0.00 0.00 0.00 0.00 0.00 0.00 0.01 0.01 0.01 0.01 0.01 0.01 0.01 0.02 0.02 0.03 0.03 0.04
0.05 0.05 0.05 0.04 0.04 0.03 0.04 0.05 0.06 0.05 0.04 0.03 0.03 0.02 0.02 0.02 0.01 0.01 0.01 0.01 0.01 0.00 0.00 0.00 0.00 0.00 0.00 0.00 0.00 0.00 0.00 0.00 0.01 0.01 0.01 0.01 0.01 0.01 0.01 0.02 0.02 0.03 0.03
0.06 0.06 0.07 0.07 0.05 0.04 0.04 0.04 0.04 0.05 0.04 0.03 0.02 0.02 0.01 0.01 0.01 0.01 0.01 0.01 0.01 0.01 0.00 0.00 0.00 0.00 0.00 0.00 0.00 0.00 0.00 0.00 0.00 0.00 0.00 0.01 0.01 0.01 0.01 0.01 0.02 0.02 0.02
0.06 0.05 0.05 0.05 0.04 0.03 0.04 0.04 0.04 0.04 0.04 0.04 0.03 0.02 0.01 0.01 0.01 0.01 0.01 0.01 0.01 0.01 0.00 0.00 0.00 0.00 0.00 0.00 0.00 0.00 0.00 0.00 0.00 0.00 0.00 0.00 0.00 0.01 0.01 0.01 0.01 0.01 0.02
0.05 0.04 0.04 0.03 0.03 0.02 0.02 0.04 0.04 0.03 0.03 0.03 0.03 0.02 0.01 0.01 0.01 0.01 0.01 0.01 0.01 0.01 0.01 0.00 0.00 0.00 0.00 0.00 0.00 0.00 0.00 0.00 0.00 0.00 0.00 0.00 0.00 0.00 0.01 0.01 0.01 0.01 0.01
0.05 0.06 0.05 0.04 0.04 0.02 0.02 0.02 0.03 0.04 0.03 0.03 0.03 0.02 0.02 0.02 0.01 0.01 0.01 0.01 0.01 0.01 0.01 0.00 0.00 0.00 0.00 0.00 0.00 0.00 0.00 0.00 0.00 0.00 0.00 0.01 0.01 0.01 0.01 0.01 0.01 0.01 0.01
0.04 0.04 0.04 0.05 0.04 0.04 0.03 0.02 0.03 0.04 0.04 0.04 0.03 0.02 0.02 0.01 0.01 0.01 0.01 0.01 0.01 0.01 0.01 0.01 0.00 0.00 0.00 0.00 0.00 0.00 0.00 0.00 0.00 0.00 0.00 0.00 0.01 0.01 0.01 0.01 0.01 0.01 0.01
0.03 0.03 0.03 0.03 0.03 0.03 0.03 0.03 0.03 0.03 0.04 0.04 0.05 0.04 0.03 0.02 0.01 0.01 0.01 0.01 0.01 0.01 0.01 0.01 0.01 0.00 0.00 0.00 0.00 0.00 0.00 0.00 0.00 0.00 0.00 0.00 0.00 0.01 0.01 0.01 0.01 0.01 0.01
0.03 0.04 0.04 0.04 0.03 0.03 0.03 0.03 0.03 0.04 0.04 0.04 0.05 0.06 0.06 0.04 0.02 0.01 0.01 0.01 0.02 0.02 0.01 0.01 0.01 0.01 0.01 0.01 0.01 0.01 0.00 0.00 0.00 0.00 0.00 0.00 0.00 0.01 0.01 0.01 0.01 0.01 0.01
0.04 0.05 0.06 0.06 0.06 0.05 0.05 0.05 0.04 0.05 0.06 0.06 0.06 0.07 0.07 0.08 0.07 0.05 0.03 0.03 0.03 0.03 0.02 0.01 0.01 0.01 0.01 0.01 0.01 0.01 0.01 0.01 0.01 0.00 0.00 0.00 0.00 0.00 0.00 0.00 0.00 0.01 0.01
0.03 0.03 0.04 0.04 0.05 0.06 0.06 0.07 0.07 0.07 0.07 0.08 0.08 0.08 0.07 0.07 0.07 0.08 0.07 0.06 0.05 0.04 0.03 0.02 0.02 0.02 0.02 0.02 0.02 0.02 0.02 0.02 0.01 0.01 0.00 0.00 0.01 0.00 0.00 0.00 0.01 0.01 0.01
0.02 0.02 0.02 0.02 0.02 0.03 0.04 0.05 0.06 0.07 0.07 0.06 0.07 0.06 0.06 0.06 0.06 0.06 0.07 0.07 0.07 0.06 0.05 0.04 0.05 0.05 0.04 0.04 0.04 0.03 0.02 0.02 0.01 0.01 0.01 0.01 0.00 0.00 0.00 0.00 0.00 0.00 0.00
0.01 0.01 0.01 0.02 0.03 0.03 0.04 0.04 0.04 0.05 0.05 0.06 0.06 0.05 0.04 0.04 0.05 0.05 0.05 0.05 0.05 0.06 0.07 0.06 0.05 0.05 0.05 0.04 0.04 0.03 0.02 0.01 0.01 0.01 0.01 0.00 0.00 0.00 0.00 0.00 0.00 0.00 0.00
0.01 0.01 0.01 0.01 0.02 0.03 0.04 0.04 0.05 0.05 0.05 0.05 0.05 0.05 0.04 0.03 0.04 0.04 0.04 0.04 0.04 0.04 0.05 0.05 0.04 0.04 0.03 0.03 0.02 0.01 0.01 0.01 0.01 0.00 0.00 0.00 0.00 0.00 0.00 0.00 0.00 0.00 0.00
0.02 0.02 0.02 0.02 0.02 0.02 0.03 0.04 0.04 0.04 0.05 0.05 0.05 0.05 0.05 0.04 0.04 0.04 0.04 0.04 0.04 0.04 0.04 0.03 0.02 0.02 0.02 0.01 0.01 0.01 0.01 0.02 0.02 0.01 0.01 0.01 0.01 0.01 0.01 0.00 0.00 0.00 0.00
MSLP
1020.17 1020.40 1020.58 1020.74 1020.89 1021.08 1021.30 1021.55 1021.81 1022.06 1022.26 1022.40 1022.48 1022.51 1022.49 1022.46 1022.42 1022.40 1022.39 1022.39 1022.39 1022.38 1022.35 1022.28 1022.20 1022.11 1022.01 1021.93 1021.86 1021.80 1021.76 1021.73 1021.70 1021.68 1021.66 1021.65 1021.66 1021.68 1021.71 1021.74 1021.78 1021.81 1021.85
1019.99 1020.22 1020.42 1020.61 1020.80 1021.01 1021.26 1021.52 1021.79 1022.04 1022.23 1022.35 1022.41 1022.41 1022.37 1022.30 1022.24 1022.19 1022.17 1022.15 1022.15 1022.13 1022.09 1022.03 1021.95 1021.85 1021.74 1021.63 1021.53 1021.44 1021.36 1021.30 1021.25 1021.22 1021.20 1021.20 1021.22 1021.26 1021.31 1021.37 1021.44 1021.50 1021.57
1019.71 1019.96 1020.19 1020.41 1020.64 1020.90 1021.17 1021.45 1021.73 1021.97 1022.15 1022.26 1022.30 1022.28 1022.21 1022.13 1022.04 1021.97 1021.92 1021.89 1021.86 1021.83 1021.79 1021.73 1021.65 1021.55 1021.44 1021.32 1021.21 1021.10 1021.00 1020.91 1020.84 1020.78 1020.75 1020.74 1020.75 1020.79 1020.84 1020.91 1020.99 1021.07 1021.16
1019.37 1019.64 1019.89 1020.15 1020.42 1020.71 1021.02 1021.32 1021.59 1021.83 1022.00 1022.10 1022.13 1022.10 1022.03 1021.94 1021.84 1021.75 1021.68 1021.62 1021.58 1021.53 1021.48 1021.41 1021.34 1021.24 1021.14 1021.03 1020.91 1020.80 1020.68 1020.57 1020.47 1020.39 1020.32 1020.28 1020.27 1020.28 1020.32 1020.38 1020.45 1020.53 1020.62
1018.98 1019.25 1019.53 1019.82 1020.13 1020.45 1020.77 1021.08 1021.36 1021.59 1021.76 1021.86 1021.90 1021.88 1021.83 1021.74 1021.65 1021.56 1021.48 1021.40 1021.33 1021.26 1021.19 1021.12 1021.04 1020.95 1020.85 1020.75 1020.64 1020.53 1020.40 1020.27 1020.15 1020.03 1019.93 1019.85 1019.79 1019.77 1019.77 1019.79 1019.84 1019.89 1019.97
1018.52 1018.80 1019.10 1019.42 1019.75 1020.09 1020.43 1020.74 1021.02 1021.25 1021.43 1021.54 1021.60 1021.62 1021.60 1021.55 1021.49 1021.42 1021.34 1021.25 1021.16 1021.06 1020.97 1020.87 1020.78 1020.69 1020.60 1020.50 1020.40 1020.28 1020.15 1020.01 1019.86 1019.71 1019.56 1019.44 1019.34 1019.27 1019.22 1019.21 1019.21 1019.23 1019.28
1018.01 1018.28 1018.59 1018.93 1019.28 1019.64 1019.98 1020.30 1020.58 1020.81 1021.00 1021.14 1021.24 1021.31 1021.34 1021.36 1021.34 1021.30 1021.24 1021.16 1021.05 1020.94 1020.81 1020.69 1020.58 1020.48 1020.38 1020.29 1020.18 1020.07 1019.93 1019.78 1019.60 1019.42 1019.25 1019.08 1018.94 1018.83 1018.74 1018.68 1018.64 1018.62 1018.63
1017.43 1017.70 1018.02 1018.36 1018.73 1019.10 1019.45 1019.77 1020.05 1020.29 1020.50 1020.67 1020.82 1020.95 1021.06 1021.15 1021.19 1021.21 1021.17 1021.10 1020.99 1020.86 1020.71 1020.57 1020.43 1020.32 1020.21 1020.10 1020.00 1019.88 1019.73 1019.57 1019.38 1019.18 1018.98 1018.79 1018.62 1018.48 1018.36 1018.26 1018.19 1018.14 1018.10
1016.80 1017.07 1017.39 1017.75 1018.13 1018.50 1018.86 1019.18 1019.46 1019.72 1019.95 1020.16 1020.37 1020.56 1020.74 1020.90 1021.01 1021.08 1021.08 1021.03 1020.93 1020.79 1020.63 1020.47 1020.32 1020.19 1020.07 1019.96 1019.85 1019.72 1019.57 1019.39 1019.20 1018.99 1018.78 1018.58 1018.40 1018.25 1018.12 1018.00 1017.90 1017.82 1017.75
1016.15 1016.42 1016.74 1017.11 1017.50 1017.88 1018.24 1018.57 1018.87 1019.13 1019.38 1019.63 1019.88 1020.13 1020.37 1020.58 1020.76 1020.87 1020.92 1020.90 1020.82 1020.69 1020.54 1020.38 1020.22 1020.08 1019.96 1019.85 1019.73 1019.59 1019.44 1019.26 1019.06 1018.85 1018.64 1018.45 1018.27 1018.12 1017.99 1017.88 1017.77 1017.67 1017.57
1015.52 1015.78 1016.12 1016.50 1016.89 1017.28 1017.65 1017.98 1018.28 1018.55 1018.82 1019.09 1019.37 1019.65 1019.93 1020.19 1020.41 1020.57 1020.65 1020.66 1020.61 1020.51 1020.38 1020.24 1020.11 1019.98 1019.87 1019.76 1019.64 1019.50 1019.34 1019.16 1018.96 1018.75 1018.55 1018.36 1018.20 1018.07 1017.95 1017.85 1017.74 1017.62 1017.50
1014.95 1015.22 1015.55 1015.93 1016.33 1016.72 1017.09 1017.42 1017.72 1018.00 1018.27 1018.55 1018.84 1019.14 1019.44 1019.72 1019.96 1020.15 1020.27 1020.32 1020.30 1020.25 1020.16 1020.07 1019.97 1019.88 1019.79 1019.70 1019.58 1019.45 1019.28 1019.08 1018.87 1018.66 1018.46 1018.29 1018.14 1018.02 1017.92 1017.83 1017.73 1017.61 1017.47
1014.50 1014.76 1015.08 1015.45 1015.83 1016.21 1016.57 1016.90 1017.19 1017.46 1017.73 1018.01 1018.30 1018.60 1018.90 1019.19 1019.44 1019.65 1019.79 1019.88 1019.92 1019.92 1019.89 1019.86 1019.82 1019.78 1019.73 1019.66 1019.56 1019.42 1019.24 1019.03 1018.80 1018.57 1018.35 1018.17 1018.03 1017.92 1017.84 1017.75 1017.66 1017.54 1017.39
1014.19 1014.42 1014.72 1015.05 1015.41 1015.76 1016.10 1016.40 1016.69 1016.95 1017.22 1017.49 1017.77 1018.07 1018.36 1018.65 1018.90 1019.12 1019.29 1019.41 1019.50 1019.57 1019.62 1019.66 1019.69 1019.71 1019.70 1019.66 1019.57 1019.42 1019.22 1018.97 1018.71 1018.45 1018.21 1018.00 1017.85 1017.73 1017.65 1017.57 1017.48 1017.37 1017.21
1014.04 1014.22 1014.46 1014.75 1015.05 1015.36 1015.65 1015.93 1016.20 1016.46 1016.72 1016.99 1017.28 1017.58 1017.87 1018.15 1018.41 1018.64 1018.83 1019.00 1019.14 1019.27 1019.39 1019.50 1019.60 1019.68 1019.72 1019.70 1019.61 1019.45 1019.21 1018.93 1018.61 1018.30 1018.01 1017.77 1017.58 1017.45 1017.35 1017.27 1017.18 1017.07 1016.92
1014.01 1014.14 1014.31 1014.52 1014.76 1015.00 1015.24 1015.49 1015.74 1015.99 1016.26 1016.55 1016.85 1017.16 1017.47 1017.76 1018.04 1018.28 1018.50 1018.70 1018.89 1019.07 1019.26 1019.44 1019.60 1019.73 1019.80 1019.79 1019.69 1019.51 1019.23 1018.90 1018.53 1018.15 1017.81 1017.51 1017.28 1017.11 1016.99 1016.90 1016.81 1016.70 1016.56
1014.10 1014.15 1014.25 1014.37 1014.52 1014.69 1014.88 1015.08 1015.31 1015.57 1015.86 1016.18 1016.51 1016.86 1017.20 1017.52 1017.82 1018.09 1018.34 1018.57 1018.80 1019.03 1019.26 1019.49 1019.69 1019.85 1019.94 1019.93 1019.83 1019.61 1019.30 1018.91 1018.48 1018.05 1017.64 1017.29 1017.01 1016.80 1016.65 1016.54 1016.44 1016.34 1016.20
1014.25 1014.23 1014.25 1014.28 1014.34 1014.44 1014.56 1014.74 1014.95 1015.22 1015.54 1015.90 1016.28 1016.68 1017.06 1017.43 1017.77 1018.07 1018.35 1018.61 1018.87 1019.12 1019.38 1019.64 1019.86 1020.03 1020.13 1020.12 1020.00 1019.76 1019.42 1018.99 1018.52 1018.03 1017.58 1017.18 1016.85 1016.60 1016.42 1016.29 1016.18 1016.07 1015.94
1014.43 1014.36 1014.30 1014.26 1014.25 1014.27 1014.34 1014.48 1014.69 1014.97 1015.32 1015.73 1016.16 1016.61 1017.05 1017.46 1017.84 1018.18 1018.48 1018.76 1019.04 1019.31 1019.59 1019.85 1020.08 1020.26 1020.36 1020.34 1020.21 1019.96 1019.60 1019.15 1018.66 1018.15 1017.66 1017.23 1016.87 1016.59 1016.37 1016.21 1016.08 1015.96 1015.82
1014.62 1014.51 1014.41 1014.31 1014.24 1014.21 1014.24 1014.35 1014.55 1014.84 1015.22 1015.66 1016.14 1016.64 1017.12 1017.58 1017.99 1018.35 1018.67 1018.97 1019.25 1019.53 1019.81 1020.07 1020.30 1020.48 1020.58 1020.57 1020.45 1020.20 1019.85 1019.41 1018.92 1018.41 1017.92 1017.48 1017.10 1016.79 1016.54 1016.35 1016.18 1016.03 1015.88
1014.79 1014.68 1014.56 1014.44 1014.34 1014.27 1014.28 1014.36 1014.55 1014.84 1015.23 1015.69 1016.20 1016.72 1017.24 1017.71 1018.14 1018.52 1018.85 1019.15 1019.43 1019.71 1019.98 1020.25 1020.48 1020.66 1020.77 1020.78 1020.68 1020.46 1020.14 1019.74 1019.28 1018.81 1018.34 1017.91 1017.52 1017.19 1016.92 1016.68 1016.47 1016.28 1016.08
1014.94 1014.86 1014.76 1014.65 1014.55 1014.48 1014.46 1014.54 1014.71 1014.99 1015.37 1015.82 1016.32 1016.84 1017.35 1017.83 1018.26 1018.63 1018.96 1019.26 1019.54 1019.81 1020.08 1020.35 1020.59 1020.78 1020.91 1020.95 1020.89 1020.72 1020.46 1020.12 1019.72 1019.29 1018.87 1018.46 1018.08 1017.74 1017.44 1017.16 1016.89 1016.63 1016.37
1015.06 1015.05 1015.00 1014.93 1014.86 1014.80 1014.79 1014.86 1015.01 1015.27 1015.61 1016.03 1016.50 1016.99 1017.47 1017.92 1018.32 1018.67 1018.99 1019.28 1019.55 1019.82 1020.10 1020.37 1020.62 1020.84 1021.00 1021.08 1021.07 1020.97 1020.78 1020.50 1020.18 1019.82 1019.44 1019.07 1018.71 1018.36 1018.03 1017.70 1017.37 1017.03 1016.69
1015.18 1015.24 1015.27 1015.27 1015.25 1015.23 1015.24 1015.30 1015.44 1015.66 1015.96 1016.33 1016.74 1017.17 1017.59 1017.99 1018.35 1018.67 1018.96 1019.24 1019.50 1019.78 1020.06 1020.34 1020.62 1020.86 1021.06 1021.18 1021.23 1021.19 1021.06 1020.86 1020.61 1020.31 1019.99 1019.66 1019.31 1018.97 1018.61 1018.23 1017.84 1017.43 1017.01
1015.27 1015.43 1015.55 1015.63 1015.68 1015.71 1015.75 1015.82 1015.95 1016.14 1016.39 1016.69 1017.04 1017.40 1017.75 1018.09 1018.40 1018.68 1018.94 1019.20 1019.46 1019.73 1020.02 1020.32 1020.61 1020.88 1021.11 1021.28 1021.37 1021.38 1021.31 1021.17 1020.98 1020.74 1020.47 1020.17 1019.85 1019.50 1019.12 1018.71 1018.27 1017.80 1017.30
1015.36 1015.61 1015.82 1015.99 1016.11 1016.20 1016.28 1016.37 1016.50 1016.66 1016.87 1017.12 1017.40 1017.69 1017.98 1018.25 1018.51 1018.75 1018.99 1019.22 1019.48 1019.75 1020.05 1020.35 1020.66 1020.95 1021.19 1021.38 1021.50 1021.54 1021.52 1021.42 1021.27 1021.07 1020.84 1020.58 1020.27 1019.94 1019.55 1019.12 1018.65 1018.13 1017.59
Thickness
5685 5684 5683 5682 5682 5681 5680 5679 5677 5676 5674 5673 5672 5671 5670 5668 5667 5666 5665 5664 5663 5662 5661 5660 5658 5657 5655 5653 5651 5649 5647 5645 5643 5642 5640 5639 5637 5636 5634 5633 5632 5631 5631
5681 5679 5678 5677 5676 5676 5675 5674 5672 5670 5669 5668 5666 5666 5665 5663 5662 5661 5660 5659 5657 5656 5655 5654 5652 5651 5649 5647 5646 5643 5641 5640 5638 5636 5634 5633 5632 5630 5629 5627 5626 5626 5625
5675 5674 5673 5672 5671 5669 5669 5668 5666 5664 5663 5661 5660 5660 5659 5658 5657 5655 5654 5653 5651 5650 5648 5647 5646 5644 5643 5641 5639 5637 5635 5634 5632 5630 5629 5627 5625 5623 5622 5621 5620 5619 5619
5670 5669 5668 5666 5665 5664 5663 5662 5660 5658 5656 5655 5654 5653 5653 5652 5651 5649 5648 5647 5645 5643 5642 5640 5638 5637 5636 5634 5632 5631 5629 5627 5625 5624 5622 5620 5618 5616 5615 5614 5613 5612 5612
5663 5663 5662 5661 5660 5658 5656 5656 5654 5652 5650 5649 5648 5647 5646 5645 5644 5643 5642 5640 5638 5637 5635 5633 5631 5629 5628 5626 5625 5624 5622 5620 5618 5616 5614 5613 5611 5609 5608 5607 5606 5605 5605
5657 5657 5656 5654 5653 5651 5650 5649 5648 5646 5644 5642 5641 5640 5639 5639 5638 5636 5635 5633 5631 5629 5628 5626 5624 5622 5620 5618 5617 5615 5614 5612 5611 5609 5607 5605 5603 5601 5600 5599 5598 5597 5597
5650 5650 5649 5648 5647 5645 5644 5642 5641 5639 5637 5635 5633 5632 5632 5632 5631 5629 5628 5626 5624 5622 5620 5618 5616 5614 5612 5610 5608 5607 5605 5604 5603 5601 5599 5596 5594 5593 5591 5590 5589 5588 5588
5643 5642 5642 5641 5640 5639 5637 5635 5634 5632 5630 5628 5626 5623 5622 5623 5623 5622 5620 5619 5616 5614 5612 5610 5608 5606 5603 5601 5599 5598 5596 5595 5593 5591 5589 5587 5585 5584 5582 5581 5580 5579 5578
5635 5635 5634 5633 5633 5632 5630 5629 5627 5626 5623 5620 5619 5617 5614 5613 5612 5613 5611 5610 5608 5606 5604 5602 5600 5597 5595 5592 5590 5588 5587 5585 5584 5582 5580 5578 5576 5574 5573 5571 5570 5569 5569
5626 5626 5626 5626 5625 5624 5624 5622 5621 5619 5617 5614 5611 5610 5608 5606 5603 5603 5603 5601 5599 5598 5596 5594 5591 5589 5586 5583 5581 5579 5577 5576 5574 5572 5570 5568 5566 5564 5563 5562 5561 5560 5559
5617 5617 5617 5617 5617 5616 5616 5614 5613 5611 5610 5608 5605 5602 5599 5596 5594 5592 5592 5592 5590 5589 5587 5585 5582 5580 5577 5574 5572 5570 5569 5567 5565 5563 5560 5558 5557 5555 5553 5552 5552 5551 5550
5606 5607 5607 5608 5608 5607 5606 5605 5604 5602 5601 5600 5598 5596 5593 5590 5587 5584 5581 5580 5579 5579 5578 5576 5573 5571 5568 5566 5564 5562 5560 5558 5556 5554 5552 5549 5547 5546 5545 5543 5543 5542 5541
5596 5596 5597 5597 5598 5597 5597 5596 5594 5593 5592 5591 5589 5587 5586 5584 5581 5577 5573 5570 5568 5569 5568 5567 5565 5562 5560 5557 5555 5553 5551 5549 5548 5546 5543 5541 5539 5538 5536 5535 5533 5533 5531
5586 5586 5586 5586 5587 5587 5586 5586 5584 5583 5582 5581 5580 5578 5576 5575 5573 5569 5565 5561 5559 5558 5558 5557 5555 5553 5551 5548 5546 5545 5543 5541 5539 5538 5536 5534 5532 5530 5528 5526 5524 5523 5522
5575 5575 5575 5575 5575 5575 5575 5575 5574 5572 5571 5570 5569 5568 5567 5565 5563 5560 5557 5554 5550 5548 5549 5548 5545 5544 5541 5539 5537 5536 5534 5533 5531 5530 5528 5526 5524 5522 5519 5517 5515 5513 5512
5563 5563 5564 5564 5564 5564 5564 5564 5563 5562 5561 5560 5559 5558 5556 5554 5552 5550 5547 5544 5542 5539 5538 5537 5534 5533 5532 5530 5528 5527 5525 5524 5522 5521 5519 5517 5515 5513 5510 5508 5505 5503 5502
5551 5552 5552 5552 5552 5553 5553 5553 5552 5551 5550 5548 5547 5547 5546 5544 5542 5539 5536 5534 5531 5529 5527 5527 5524 5524 5522 5521 5520 5518 5516 5515 5513 5512 5510 5508 5505 5503 5501 5498 5496 5494 5492
5540 5540 5540 5540 5541 5541 5541 5541 5540 5540 5539 5537 5537 5536 5535 5534 5531 5529 5526 5524 5521 5519 5517 5516 5515 5513 5513 5511 5510 5509 5507 5505 5503 5502 5500 5498 5496 5493 5490 5488 5486 5485 5483
5527 5527 5527 5528 5529 5529 5529 5529 5529 5529 5528 5527 5525 5525 5524 5523 5521 5519 5516 5514 5512 5510 5507 5506 5505 5503 5502 5501 5500 5499 5497 5496 5493 5491 5490 5487 5485 5483 5480 5478 5476 5475 5473
5515 5516 5515 5516 5516 5517 5518 5517 5517 5517 5516 5515 5514 5514 5513 5513 5511 5509 5507 5504 5502 5500 5498 5496 5495 5493 5492 5490 5488 5487 5487 5485 5483 5481 5479 5476 5474 5472 5470 5468 5466 5464 5462
5503 5503 5503 5503 5503 5504 5506 5506 5506 5505 5504 5503 5503 5502 5502 5502 5501 5500 5498 5495 5493 5490 5488 5486 5484 5483 5481 5479 5477 5475 5474 5474 5472 5469 5468 5466 5464 5463 5460 5458 5455 5453 5452
5489 5490 5490 5490 5490 5492 5494 5495 5494 5493 5492 5492 5491 5490 5490 5490 5489 5489 5487 5486 5484 5481 5478 5476 5474 5472 5470 5467 5465 5463 5460 5460 5461 5459 5455 5456 5453 5451 5449 5447 5445 5443 5442
5475 5475 5476 5476 5477 5479 5482 5483 5482 5482 5481 5480 5479 5479 5478 5478 5477 5477 5475 5474 5472 5470 5468 5465 5463 5461 5459 5457 5454 5452 5449 5445 5443 5443 5442 5445 5442 5440 5438 5435 5434 5432 5431
5460 5461 5462 5463 5464 5466 5468 5470 5469 5468 5467 5466 5466 5466 5466 5465 5465 5464 5463 5461 5459 5457 5455 5453 5451 5449 5447 5444 5441 5439 5436 5434 5432 5430 5428 5429 5430 5428 5427 5425 5423 5421 5419
5446 5447 5448 5449 5450 5452 5454 5455 5456 5454 5453 5452 5453 5453 5454 5453 5454 5453 5451 5449 5447 5445 5443 5441 5439 5437 5434 5431 5429 5426 5423 5422 5421 5420 5415 5414 5415 5415 5416 5415 5412 5410 5407
5431 5432 5433 5434 5435 5436 5439 5441 5441 5441 5440 5439 5440 5440 5440 5441 5440 5440 5439 5437 5434 5432 5430 5428 5425 5423 5421 5418 5415 5412 5410 5407 5405 5405 5404 5401 5400 5399 5403 5405 5401 5399 5396